Franklin, PA

10:53 AM EST on December 14, 2019 (GMT -0500)
Venango Regional

Weather History for KFKL - October, 2019

Change the Weather History Date:

Saturday, October 12, 2019

  Actual Average Record
Temperature  
Mean Temperature 48 °F -  
Max Temperature 59 °F 61 °F 87 °F (1928)
Min Temperature 37 °F 40 °F 27 °F (1964)
Degree Days  
Heating Degree Days 17    
Moisture  
Dew Point 43 °F    
Average Humidity 80    
Maximum Humidity 100    
Minimum Humidity 51    
Precipitation  
Precipitation 0.04 in - - ()
Sea Level Pressure  
Sea Level Pressure 30.02 in    
Wind  
Wind Speed 8 mph (WSW)    
Max Wind Speed 15 mph    
Max Gust Speed 20 mph    
Visibility 8 miles    
Events Rain    
Averages and records for this station are not official NWS values.
T = Trace of Precipitation, MM = Missing Value Source: NWS Daily Summary

Daily Weather History Graph

Daily Weather History Graph

Search for Another Location

Airport or City:

Astronomy

Oct. 12, 2019 Rise Set
Actual Time 7:27 AM EDT 6:43 PM EDT
Civil Twilight 6:59 AM EDT 7:11 PM EDT
Nautical Twilight 6:27 AM EDT 7:43 PM EDT
Astronomical Twilight 5:55 AM EDT 8:15 PM EDT
Moon 6:40 PM EDT (10/12) 6:01 AM EDT (10/12)
Length of Visible Light 12h 11m
Length of Day
11h 15m
Waxing Gibbous, 99% of the Moon is Illuminated
Oct 12
Waxing Gibbous
Oct 13
Full
Oct 21
Last Quarter
Oct 27
New
Nov 4
First Quarter

Hourly Weather History & Observations

Time (EDT) Temp. Windchill Dew Point Humidity Pressure Visibility Wind Dir Wind Speed Gust Speed Precip Events Conditions
12:56 AM 57.9 °F - 41.0 °F 53% 29.96 in 10.0 mi SE 9.2 mph - N/A   Overcast
1:56 AM 59.0 °F - 41.0 °F 51% 29.94 in 10.0 mi SE 8.1 mph - N/A   Overcast
2:56 AM 57.9 °F - 41.0 °F 53% 29.92 in 10.0 mi SE 10.4 mph - N/A   Overcast
3:56 AM 59.0 °F - 42.1 °F 53% 29.90 in 6.0 mi SSE 9.2 mph - 0.00 in Rain Light Rain
4:56 AM 55.9 °F - 45.0 °F 67% 29.91 in 10.0 mi SSE 8.1 mph - 0.00 in Rain Light Rain
5:56 AM 55.0 °F - 46.0 °F 72% 29.91 in 10.0 mi South 5.8 mph - 0.00 in Rain Light Rain
6:56 AM 52.0 °F - 48.9 °F 89% 29.95 in 10.0 mi WSW 5.8 mph - 0.00 in Rain Light Rain
7:05 AM 51.8 °F - 48.2 °F 88% 29.95 in 10.0 mi SW 5.8 mph - 0.00 in   Overcast
7:56 AM 52.0 °F - 50.0 °F 93% 29.96 in 7.0 mi Calm Calm - 0.01 in Rain Light Rain
8:06 AM 51.8 °F - 51.8 °F 100% 29.96 in 6.0 mi NW 6.9 mph - 0.00 in Rain Light Rain
8:20 AM 51.8 °F - 51.8 °F 100% 29.98 in 9.0 mi WNW 9.2 mph - 0.00 in Rain Light Rain
8:48 AM 51.8 °F - 48.2 °F 88% 29.99 in 6.0 mi WNW 15.0 mph 19.6 mph 0.01 in Rain Light Rain
8:56 AM 50.0 °F - 48.0 °F 93% 30.00 in 10.0 mi WNW 10.4 mph 19.6 mph 0.01 in Rain Light Rain
9:06 AM 50.0 °F - 48.2 °F 94% 29.99 in 10.0 mi WNW 9.2 mph - 0.00 in Rain Light Rain
9:13 AM 50.0 °F - 48.2 °F 94% 29.99 in 9.0 mi WNW 8.1 mph 17.3 mph 0.00 in Rain Light Rain
9:24 AM 50.0 °F - 48.2 °F 94% 30.00 in 4.0 mi WNW 9.2 mph - 0.00 in Rain Light Rain
9:56 AM 48.9 °F - 46.9 °F 93% 30.02 in 7.0 mi WNW 6.9 mph - 0.00 in Rain Light Rain
10:38 AM 48.2 °F - 48.2 °F 100% 30.02 in 1.8 mi WNW 5.8 mph - 0.01 in Rain Light Rain
10:56 AM 48.0 °F - 46.9 °F 96% 30.04 in 2.0 mi WNW 10.4 mph - 0.01 in Rain Light Rain
11:04 AM 48.2 °F - 46.4 °F 93% 30.03 in 9.0 mi West 6.9 mph - 0.00 in Rain Light Rain
11:12 AM 48.2 °F - 46.4 °F 93% 30.03 in 5.0 mi WNW 8.1 mph - 0.00 in   Overcast
11:40 AM 48.2 °F - 46.4 °F 93% 30.04 in 2.5 mi Variable 3.5 mph - 0.00 in Rain Light Rain
11:56 AM 48.0 °F - 46.9 °F 96% 30.05 in 2.0 mi West 5.8 mph - 0.00 in Rain Light Rain
12:56 PM 46.9 °F - 45.0 °F 93% 30.06 in 8.0 mi West 9.2 mph - 0.01 in   Overcast
1:17 PM 48.2 °F - 46.4 °F 93% 30.05 in 10.0 mi West 8.1 mph - N/A   Mostly Cloudy
1:26 PM 48.2 °F - 44.6 °F 87% 30.05 in 10.0 mi WSW 9.2 mph - N/A   Mostly Cloudy
1:39 PM 48.2 °F - 42.8 °F 82% 30.05 in 10.0 mi WSW 11.5 mph - N/A   Mostly Cloudy
1:56 PM 48.9 °F - 44.1 °F 83% 30.06 in 10.0 mi WSW 10.4 mph - N/A   Mostly Cloudy
2:13 PM 48.2 °F - 42.8 °F 82% 30.04 in 10.0 mi WSW 9.2 mph - N/A   Overcast
2:56 PM 51.1 °F - 39.9 °F 66% 30.06 in 10.0 mi SW 10.4 mph 17.3 mph N/A   Mostly Cloudy
3:21 PM 51.8 °F - 39.2 °F 62% 30.05 in 10.0 mi West 11.5 mph - N/A   Scattered Clouds
3:56 PM 51.1 °F - 37.0 °F 59% 30.05 in 10.0 mi SW 13.8 mph - N/A   Scattered Clouds
4:56 PM 51.1 °F - 36.0 °F 56% 30.06 in 10.0 mi West 11.5 mph - N/A   Scattered Clouds
5:56 PM 50.0 °F - 34.0 °F 54% 30.06 in 10.0 mi WSW 9.2 mph - N/A   Clear
6:56 PM 45.0 °F 42.6 °F 33.1 °F 63% 30.08 in 10.0 mi SW 4.6 mph - N/A   Clear
7:56 PM 43.0 °F 39.5 °F 33.1 °F 68% 30.10 in 10.0 mi SW 5.8 mph - N/A   Clear
8:56 PM 41.0 °F 38.0 °F 33.1 °F 73% 30.10 in 10.0 mi SSW 4.6 mph - N/A   Clear
9:56 PM 39.9 °F 36.7 °F 34.0 °F 79% 30.12 in 10.0 mi SW 4.6 mph - N/A   Clear
10:56 PM 37.9 °F 32.7 °F 32.0 °F 79% 30.11 in 10.0 mi SSW 6.9 mph - N/A   Clear
11:56 PM 37.0 °F 32.4 °F 33.1 °F 86% 30.11 in 10.0 mi SSW 5.8 mph - N/A   Clear